Weather History for Ellensburg, WA

Change the Weather History Date:

Monday, February 18, 2013

  Actual Average (KYKM) Record (KYKM)
Temperature  
Mean Temperature 34 °F 37 °F  
Max Temperature 43 °F 47 °F 62 °F (1977)
Min Temperature 25 °F 26 °F 5 °F (2006)
Degree Days  
Heating Degree Days 31 28  
Month to date heating degree days 538  
Since 1 July heating degree days 4256  
Cooling Degree Days 0 0  
Month to date cooling degree days 0  
Year to date cooling degree days 0  
Moisture  
Dew Point 23 °F    
Average Humidity 67    
Maximum Humidity 79    
Minimum Humidity 49    
Precipitation  
Precipitation 0.00 in 0.03 in 0.42 in (1999)
Month to date precipitation 0.51  
Year to date precipitation 1.65  
Snow  
Snow 0.00 in 0.10 in 1.90 in (1993)
Month to date snowfall 1.9  
Year to date snowfall 7.2  
Since 1 July snowfall 20.2  
Snow Depth -    
Sea Level Pressure  
Sea Level Pressure 29.92 in    
Wind  
Wind Speed 4 mph (ENE)    
Max Wind Speed 8 mph    
Max Gust Speed -    
Visibility 10 miles    
Events      
T = Trace of Precipitation, MM = Missing Value Source: NWS Daily Summary

Daily Weather History Graph

Daily Weather History Graph

Search for Another Location

Airport:

Trip Planner

Search our weather history database for the weather conditions in past years. The results will help you decide how hot, cold, wet, or windy it might be!

Date:

Astronomy

Feb. 18, 2013 Rise Set
Actual Time 7:01 AM PST 5:31 PM PST
Civil Twilight 6:29 AM PST 6:02 PM PST
Nautical Twilight 5:54 AM PST 6:38 PM PST
Astronomical Twilight 5:19 AM PST 7:13 PM PST
Moon 11:09 AM PST (2/18) 1:56 AM PST (2/18)
Length of Visible Light 11h 32m
Length of Day
10h 30m
First Quarter, 59% of the Moon is Illuminated
Feb 18
First Quarter
Feb 25
Full
Mar 4
Last Quarter
Mar 11
New
Mar 19
First Quarter

Hourly Weather History & Observations

Time (PST) Temp. Windchill Dew Point Humidity Pressure Visibility Wind Dir Wind Speed Gust Speed Precip Events Conditions
1:53 AM 28.0 °F 24.2 °F 19.9 °F 72% 30.07 in 10.0 mi NE 3.5 mph - N/A   Clear
2:53 AM 25.0 °F 17.1 °F 18.0 °F 75% 30.07 in 10.0 mi East 6.9 mph - N/A   Clear
4:53 AM 26.1 °F - 19.9 °F 78% 30.04 in 10.0 mi Calm Calm - N/A   Scattered Clouds
6:53 AM 27.0 °F 23.0 °F 21.0 °F 78% 30.02 in 10.0 mi NE 3.5 mph - N/A   Clear
7:53 AM 30.0 °F 26.5 °F 24.1 °F 79% 30.01 in 10.0 mi NNE 3.5 mph - N/A   Overcast
8:53 AM 32.0 °F 27.5 °F 25.0 °F 75% 30.00 in 10.0 mi WSW 4.6 mph - N/A   Overcast
9:53 AM 35.1 °F 31.0 °F 26.1 °F 70% 29.99 in 10.0 mi North 4.6 mph - N/A   Overcast
10:53 AM 39.0 °F - 25.0 °F 57% 29.96 in 10.0 mi Calm Calm - N/A   Overcast
11:53 AM 41.0 °F 39.0 °F 26.1 °F 55% 29.93 in 10.0 mi Variable 3.5 mph - N/A   Scattered Clouds
12:53 PM 41.0 °F - 25.0 °F 53% 29.90 in 10.0 mi Calm Calm - N/A   Mostly Cloudy
1:53 PM 43.0 °F - 25.0 °F 49% 29.89 in 10.0 mi Calm Calm - N/A   Mostly Cloudy
2:53 PM 42.1 °F 39.2 °F 25.0 °F 51% 29.88 in 10.0 mi ESE 4.6 mph - N/A   Overcast
4:53 PM 41.0 °F 35.8 °F 25.0 °F 53% 29.85 in 10.0 mi ESE 8.1 mph - N/A   Overcast
5:53 PM 37.9 °F 34.4 °F 25.0 °F 60% 29.85 in 10.0 mi East 4.6 mph - N/A   Overcast
6:53 PM 35.1 °F 30.1 °F 25.0 °F 67% 29.84 in 10.0 mi East 5.8 mph - N/A   Overcast
7:53 PM 33.1 °F 28.7 °F 24.1 °F 70% 29.83 in 10.0 mi NE 4.6 mph - N/A   Scattered Clouds
8:53 PM 30.0 °F 24.1 °F 23.0 °F 75% 29.82 in 10.0 mi ENE 5.8 mph - N/A   Clear
9:53 PM 28.0 °F 21.7 °F 21.0 °F 75% 29.81 in 10.0 mi ENE 5.8 mph - N/A   Scattered Clouds
10:53 PM 27.0 °F - 21.0 °F 78% 29.80 in 10.0 mi Calm Calm - N/A   Clear
11:53 PM 27.0 °F - 19.9 °F 75% 29.78 in 10.0 mi Calm Calm - N/A   Clear